Regional Weather Roundup
Issued by NWS

Home | Current Version | Previous Version | Graphics & Text | Print | Product List | Glossary On
Versions: 1 2 3 4 5 6 7 8 9 10 11 12 13 14 15 16 17 18 19 20 21 22 23 24 25 26 27 28 29 30 31 32 33 34 35 36 37 38 39 40 41 42 43 44 45 46 47 48 49 50
000
ASUS43 KOAX 211410
RWRNE

WEATHER ROUNDUP FOR NEBRASKA
NATIONAL WEATHER SERVICE OMAHA NE
800 AM CST SAT JAN 21 2017

NOTES: SATELLITE DATA IS BEING USED TO AUGMENT CLOUD COVER ABOVE
       12000 FEET.
       "FAIR" INDICATES FEW OR NO CLOUDS BELOW 12,000 FEET WITH NO
       SIGNIFICANT WEATHER AND/OR OBSTRUCTIONS TO VISIBILITY.

  * THESE STATIONS DO NOT REPORT WEATHER SUCH AS RAIN...SNOW OR FOG.

NEZ001>004-019>022-054>056-211500-
NEBRASKA PANHANDLE

CITY           SKY/WX    TMP DP  RH WIND       PRES   REMARKS
SCOTTSBLUFF    CLEAR     18  15  88 N5        29.40R WCI  11
ALLIANCE       CLEAR     15  13  91 W6        29.37S WCI   6
CHADRON        PTCLDY    25  22  88 W9        29.39R WCI  15
KIMBALL        CLEAR     19  19  98 W6        29.38S WCI  11
SIDNEY         CLEAR     20  16  84 W3        29.39S
$$

NEZ057>060-069>072-079>082-211500-
SOUTHWEST NEBRASKA

CITY           SKY/WX    TMP DP  RH WIND       PRES   REMARKS
NORTH PLATTE   CLEAR     23  22  96 W5        29.41S WCI  17
IMPERIAL       CLEAR     26  22  84 W6        29.42S WCI  19
LEXINGTON      CLEAR     27  26  94 CALM      29.42S
MCCOOK         CLEAR     27  26  96 W8        29.44S WCI  19
OGALLALA       CLEAR     24  22  92 CALM      29.41S
$$

NEZ005>010-023>029-035>040-094-211500-
NORTH CENTRAL NEBRASKA

CITY           SKY/WX    TMP DP  RH WIND       PRES   REMARKS
VALENTINE      CLEAR     29  26  89 W5        29.36R WCI  24
AINSWORTH      CLOUDY    30  30  99 SW6       29.36S WCI  24
BROKEN BOW     CLEAR     32  31  96 N6        29.40R WCI  26
O`NEILL        CLOUDY    32  32  99 W6        29.36S WCI  26
ORD            PTCLDY    33  30  88 CALM      29.38R
THEDFORD       CLEAR     31  31  96 SW3       29.38S
$$

NEZ041-046>049-061>064-073>077-083>087-211500-
SOUTH CENTRAL NEBRASKA

CITY           SKY/WX    TMP DP  RH WIND       PRES   REMARKS
GRAND ISLAND   CLEAR     31  31 100 SW8       29.42R WCI  23
AURORA         CLEAR     32  32 100 W8        29.42R WCI  25
HASTINGS       CLEAR     33  31  92 SW5       29.44R WCI  29
HEBRON         CLEAR     32  32 100 W6        29.45R WCI  27
HOLDREGE       CLEAR     31  30  94 NW5       29.43S WCI  27
KEARNEY *      CLEAR     30 -17  12 W6        29.43R WCI  24
YORK           PTCLDY    32  32 100 SW8       29.42S WCI  25
$$

NEZ011>018-030>034-042>045-211500-
NORTHEAST NEBRASKA

CITY           SKY/WX    TMP DP  RH WIND       PRES   REMARKS
NORFOLK        CLOUDY    32  31  96 W6        29.37R WCI  26
ALBION         MOCLDY   N/A N/A N/A CALM      29.38S
BLAIR          FOG       37  37  99 SW9       29.39S VSB<1/4 WCI  30
FREMONT        FOG       34  34 100 CALM      29.41R VSB 1/4
TEKAMAH        CLOUDY    35  34  96 SW3       29.40R FOG
WAYNE          CLOUDY    36  35  98 W8        29.37R WCI  29
$$

NEZ050>053-065>068-078-088>093-211500-
SOUTHEAST NEBRASKA

CITY           SKY/WX    TMP DP  RH WIND       PRES   REMARKS
LINCOLN        PTCLDY    34  32  92 VRB3      29.44R
OMAHA EPPLEY   CLOUDY    40  37  89 SW6       29.41R FOG
BEATRICE       PTCLDY    32  32 100 CALM      29.44S FOG
FALLS CITY     CLOUDY    41  40  96 SW6       29.44S
NEBRASKA CITY  SNOW      36  36 100 W10       29.43R VSB<1/4 WCI  28
PLATTSMOUTH    FOG       35  33  93 SW8       29.42R VSB<1/4 WCI  28
$$

NEZ044-045-051>053-067-211500-
OMAHA AREA

CITY           SKY/WX    TMP DP  RH WIND       PRES   REMARKS
OMAHA EPPLEY   CLOUDY    40  37  89 SW6       29.41R FOG
BLAIR          FOG       37  37  99 SW9       29.39S VSB<1/4 WCI  30
FREMONT        FOG       34  34 100 CALM      29.41R VSB 1/4
MILLARD        CLOUDY    40  39  97 SW6       29.41S FOG
OFFUTT AFB     MOCLDY    37  37 100 SW6       29.41R WCI  32
PLATTSMOUTH    FOG       35  33  93 SW8       29.42R VSB<1/4 WCI  28
WAHOO          FAIR      35  34  97 W8        29.41R WCI  28
$$



USA.gov is the U.S. government's official web portal to all federal, state and local government web resources and services.